1491973200.23,24793,13.06,73266.0,-6.13,-29.89,-30.77,0,*56
1491973201.51,24794,13.06,73270.5,-6.19,-29.83,-30.89,0,*50
1491973202.75,24795,13.06,73268.3,-6.19,-29.95,-31.01,0,*57
1491973204.01,24796,13.06,73270.0,-6.17,-30.05,-30.95,0,*57
1491973205.26,24797,13.06,73268.8,-6.13,-30.01,-30.95,0,*56
1491973206.5,24798,13.06,73272.5,-6.17,-29.95,-30.95,0,*58
1491973207.77,24799,13.06,73276.8,-6.19,-30.17,-31.17,0,*5E
1491973209.0,24800,13.06,73268.5,-6.17,-30.05,-31.01,0,*5B
1491973210.26,24801,13.06,73274.8,-6.13,-30.01,-30.89,0,*5B
1491973211.53,24802,13.06,73274.3,-6.13,-29.89,-30.89,0,*50
1491973212.81,24803,13.06,73278.0,-6.13,-29.89,-30.77,0,*50
1491973214.06,24804,13.06,73272.5,-6.13,-29.83,-30.77,0,*5D
1491973215.34,24805,13.06,73272.5,-6.13,-29.89,-30.77,0,*56
1491973216.59,24806,13.06,73274.0,-6.13,-29.83,-30.77,0,*5F
1491973217.84,24807,13.06,73264.8,-6.13,-29.83,-30.89,0,*5F
1491973219.11,24808,13.06,73268.0,-6.13,-29.89,-30.73,0,*5F
1491973220.35,24809,13.06,73274.5,-6.13,-29.83,-30.55,0,*50
1491973221.6,24810,13.06,73268.8,-6.13,-29.57,-30.61,0,*56
1491973222.84,24811,13.06,73268.5,-6.13,-29.67,-30.55,0,*53
1491973224.09,24812,13.06,73272.3,-6.13,-29.57,-30.61,0,*54
1491973225.35,24813,13.06,73272.5,-6.11,-29.57,-30.55,0,*50
1491973226.6,24814,13.06,73268.3,-6.13,-29.67,-30.61,0,*51
1491973227.87,24815,13.06,73270.3,-6.11,-29.83,-30.73,0,*5B
1491973229.16,24816,13.06,73268.3,-6.11,-29.73,-30.73,0,*57
1491973230.43,24817,13.06,73260.5,-6.11,-29.83,-30.89,0,*5C
1491973231.73,24818,13.06,73252.5,-6.11,-29.89,-30.89,0,*59
1491973233.03,24819,13.06,73254.5,-6.11,-29.89,-30.77,0,*59
1491973234.3,24820,13.06,73242.3,-6.11,-29.83,-30.61,0,*5E
1491973235.58,24821,13.06,73240.5,-6.11,-29.67,-30.61,0,*55
1491973236.87,24822,13.06,73252.8,-6.11,-29.73,-30.73,0,*50
1491973238.11,24823,13.06,73254.8,-6.09,-30.01,-30.83,0,*5A
1491973239.39,24824,13.06,73260.3,-6.11,-30.05,-30.95,0,*57
1491973240.67,24825,13.06,73262.0,-6.11,-30.05,-30.95,0,*56
1491973241.94,24826,13.06,73268.8,-6.11,-29.83,-30.61,0,*58
1491973243.17,24827,13.06,73268.8,-6.09,-29.79,-30.51,0,*56
1491973244.41,24828,13.06,73266.5,-6.09,-29.67,-30.51,0,*56
1491973245.65,24829,13.06,73264.0,-6.09,-29.61,-30.55,0,*55
1491973246.92,24830,13.06,73270.0,-6.11,-29.83,-30.61,0,*5F
1491973248.15,24831,13.06,73278.0,-6.09,-29.61,-30.55,0,*5C
1491973249.41,24832,13.06,73286.0,-6.07,-29.79,-30.55,0,*58
1491973250.68,24833,13.06,73280.8,-6.07,-30.01,-30.83,0,*55
1491973251.94,24834,13.06,73288.0,-6.07,-30.11,-30.89,0,*59
1491973253.21,24835,13.06,73286.0,-6.07,-29.95,-30.73,0,*59
1491973254.46,24836,13.06,73278.8,-6.05,-29.73,-30.67,0,*55
1491973255.7,24837,13.06,73278.3,-6.05,-29.79,-30.77,0,*5F
1491973256.97,24838,13.06,73276.0,-6.05,-29.89,-30.77,0,*5F
1491973258.24,24839,13.06,73268.5,-6.05,-30.05,-30.77,0,*52
1491973259.48,24840,13.06,73266.3,-6.05,-29.95,-30.73,0,*59
1491973260.71,24841,13.06,73274.0,-6.05,-29.79,-30.51,0,*5A
1491973261.99,24842,13.06,73278.3,-6.05,-29.89,-30.77,0,*52
1491973263.25,24843,13.06,73274.3,-6.01,-29.89,-30.61,0,*50
1491973264.5,24844,13.06,73278.0,-6.01,-29.83,-30.61,0,*5D
1491973265.74,24845,13.06,73270.5,-6.01,-29.83,-30.73,0,*5F
1491973267.0,24846,13.06,73266.3,-6.01,-30.05,-30.77,0,*5E
1491973268.29,24847,13.06,73270.3,-5.99,-29.89,-30.77,0,*51
1491973269.53,24848,13.06,73268.3,-6.01,-29.83,-30.61,0,*51
1491973270.79,24849,13.06,73264.8,-6.01,-30.01,-30.73,0,*51
1491973272.08,24850,13.06,73262.5,-5.99,-30.01,-30.77,0,*5F
1491973273.37,24851,13.06,73260.8,-5.99,-29.89,-30.77,0,*56
1491973274.64,24852,13.06,73260.8,-6.01,-29.89,-30.73,0,*53
1491973275.93,24853,13.06,73256.5,-5.99,-29.89,-30.73,0,*50
1491973277.2,24854,13.06,73260.5,-5.99,-29.83,-30.73,0,*5D
1491973278.41,24855,13.06,73260.3,-5.97,-29.79,-30.67,0,*52
1491973279.65,24856,13.06,73264.3,-5.97,-29.95,-30.73,0,*56
1491973280.92,24857,13.06,73268.0,-5.99,-29.83,-30.61,0,*5D
1491973282.13,24858,13.06,73268.8,-5.97,-29.83,-30.67,0,*5A
1491973283.36,24859,13.06,73274.3,-5.95,-29.83,-30.67,0,*59
1491973284.57,24860,13.06,73276.3,-5.97,-29.79,-30.67,0,*54
1491973285.79,24861,13.06,73270.8,-5.97,-29.95,-30.67,0,*57
1491973287.01,24862,13.06,73274.5,-5.95,-29.95,-30.67,0,*56
1491973288.23,24863,13.06,73274.5,-5.97,-29.95,-30.67,0,*55
1491973289.5,24864,13.06,73274.5,-5.95,-30.05,-30.73,0,*54
1491973290.73,24865,13.06,73274.8,-5.95,-30.33,-31.11,0,*55
1491973291.96,24866,13.06,73272.8,-5.97,-30.23,-31.11,0,*55
1491973293.19,24867,13.06,73280.8,-5.97,-30.23,-30.89,0,*54
1491973294.47,24868,13.06,73278.3,-5.93,-29.95,-30.73,0,*5F
1491973295.72,24869,13.06,73280.0,-5.95,-29.95,-30.73,0,*58
1491973296.98,24870,13.06,73284.3,-5.93,-30.17,-31.01,0,*50
1491973298.24,24871,13.06,73278.8,-5.93,-30.51,-31.29,0,*59
1491973299.52,24872,13.06,73278.8,-5.93,-30.55,-31.39,0,*5F
1491973300.75,24873,13.06,73276.8,-5.95,-30.55,-31.45,0,*53
1491973301.99,24874,13.06,73278.0,-5.95,-30.51,-31.29,0,*5A
1491973303.22,24875,13.06,73278.0,-5.93,-30.23,-31.01,0,*52
1491973304.48,24876,13.06,73274.8,-5.93,-30.23,-31.11,0,*50
1491973305.72,24877,13.06,73272.8,-5.93,-30.23,-31.05,0,*54
1491973306.98,24878,13.06,73268.3,-5.93,-30.05,-30.83,0,*50
1491973308.23,24879,13.06,73268.8,-5.93,-29.95,-30.83,0,*50
1491973309.5,24880,13.06,73270.0,-5.93,-30.01,-30.83,0,*53
1491973310.77,24881,13.06,73268.0,-5.93,-30.01,-30.83,0,*52
1491973312.0,24882,13.06,73260.0,-5.91,-30.17,-31.05,0,*5B
1491973313.24,24883,13.06,73264.0,-5.91,-30.45,-31.23,0,*59
1491973314.49,24884,13.06,73264.0,-5.91,-30.51,-31.39,0,*50
1491973315.74,24885,13.06,73256.3,-5.93,-30.67,-31.45,0,*5D
1491973317.0,24886,13.06,73270.8,-5.91,-30.61,-31.39,0,*51
1491973318.28,24887,13.06,73270.8,-5.93,-30.51,-31.39,0,*51
1491973319.54,24888,13.06,73266.3,-5.93,-30.55,-31.45,0,*51
1491973320.8,24889,13.06,73256.5,-5.93,-30.83,-31.57,0,*58
1491973322.06,24890,13.06,73268.0,-5.95,-30.73,-31.57,0,*59
1491973323.32,24891,13.06,73264.0,-5.93,-30.67,-31.57,0,*5B
1491973324.58,24892,13.06,73268.5,-5.93,-30.51,-31.45,0,*5E
1491973325.79,24893,13.06,73274.0,-5.91,-30.27,-31.17,0,*5B
1491973327.03,24894,13.06,73274.0,-5.93,-30.23,-31.01,0,*5D
1491973328.26,24895,13.06,73274.0,-5.93,-30.23,-31.05,0,*58
1491973329.49,24896,13.06,73270.0,-5.93,-30.23,-31.05,0,*5B
1491973330.76,24897,13.06,73276.8,-5.93,-30.33,-31.23,0,*5F
1491973332.02,24898,13.06,73268.5,-5.93,-30.33,-31.23,0,*50
1491973333.26,24899,13.06,73266.8,-5.91,-30.17,-31.05,0,*51
1491973334.54,24900,13.06,73268.3,-5.93,-30.39,-31.23,0,*5A
1491973335.82,24901,13.06,73266.3,-5.93,-30.39,-31.39,0,*50
1491973337.08,24902,13.06,73260.0,-5.93,-30.33,-31.23,0,*52
1491973338.32,24903,13.06,73258.5,-5.91,-30.27,-31.23,0,*54
1491973339.56,24904,13.06,73260.0,-5.93,-30.33,-31.17,0,*53
1491973340.8,24905,13.06,73262.0,-5.91,-30.33,-31.23,0,*57
1491973342.0,24906,13.06,73266.8,-5.91,-30.45,-31.33,0,*54
1491973343.25,24907,13.06,73268.3,-5.89,-30.39,-31.29,0,*5C
1491973344.5,24908,13.06,73266.5,-5.89,-30.39,-31.29,0,*53
1491973345.73,24909,13.06,73266.5,-5.91,-30.45,-31.39,0,*51
1491973346.94,24910,13.06,73270.3,-5.91,-30.33,-31.33,0,*52
1491973348.17,24911,13.06,73278.8,-5.89,-30.23,-31.17,0,*5D
1491973349.46,24912,13.06,73268.3,-5.89,-30.73,-31.61,0,*5A
1491973350.74,24913,13.06,73266.0,-5.89,-30.73,-31.51,0,*58
1491973351.98,24914,13.06,73266.3,-5.89,-30.27,-31.29,0,*51
1491973353.21,24915,13.06,73266.3,-5.89,-30.23,-31.17,0,*59
1491973354.47,24916,13.06,73266.3,-5.89,-30.27,-31.11,0,*58
1491973355.69,24917,13.06,73270.3,-5.87,-30.27,-31.17,0,*51
1491973356.93,24918,13.06,73272.5,-5.87,-30.27,-31.11,0,*58
1491973358.13,24919,13.06,73272.3,-5.87,-30.23,-31.01,0,*5C
1491973359.34,24920,13.06,73272.0,-5.87,-30.23,-31.17,0,*51
1491973360.55,24921,13.06,73270.8,-5.87,-30.23,-31.17,0,*50
1491973361.8,24922,13.06,73274.8,-5.89,-30.39,-31.29,0,*5B
1491973363.03,24923,13.06,73274.0,-5.87,-30.39,-31.29,0,*54
1491973364.26,24924,13.06,73272.8,-5.87,-30.39,-31.29,0,*53
1491973365.49,24925,13.06,73274.0,-5.87,-30.39,-31.29,0,*52
1491973366.75,24926,13.06,73274.0,-5.87,-30.89,-31.51,0,*55
1491973368.01,24927,13.06,73276.0,-5.87,-30.61,-31.51,0,*52
1491973369.21,24928,13.06,73270.0,-5.87,-30.45,-31.33,0,*5F
1491973370.42,24929,13.06,73270.8,-5.87,-30.45,-31.45,0,*5F
1491973371.62,24930,13.06,73274.0,-5.87,-30.45,-31.33,0,*56
1491973372.83,24931,13.06,73268.5,-5.87,-30.45,-31.29,0,*5C
1491973374.09,24932,13.06,73276.3,-5.85,-30.33,-31.23,0,*56
1491973375.31,24933,13.06,73276.0,-5.85,-30.33,-31.29,0,*5D
1491973376.54,24934,13.06,73278.0,-5.83,-30.51,-31.29,0,*58
1491973377.82,24935,13.06,73276.0,-5.85,-30.73,-31.57,0,*56
1491973379.1,24936,13.06,73276.5,-5.85,-30.73,-31.57,0,*55
1491973380.38,24937,13.06,73276.5,-5.85,-30.73,-31.61,0,*51
1491973381.67,24938,13.06,73276.8,-5.85,-31.11,-32.07,0,*58
1491973382.92,24939,13.06,73276.5,-5.85,-31.05,-31.95,0,*54
1491973384.17,24940,13.06,73270.3,-5.85,-31.05,-32.07,0,*52
1491973385.43,24941,13.06,73278.8,-5.85,-31.05,-32.07,0,*53
1491973386.66,24942,13.06,73280.0,-5.87,-30.55,-31.33,0,*52
1491973387.87,24943,13.06,73278.3,-5.87,-30.27,-31.29,0,*5D
1491973389.09,24944,13.06,73268.8,-5.87,-30.39,-31.33,0,*5E
1491973390.32,24945,13.06,73270.5,-5.85,-30.33,-31.29,0,*5C
1491973391.55,24946,13.06,73264.5,-5.85,-30.23,-31.29,0,*5E
1491973392.81,24947,13.06,73278.8,-5.85,-30.51,-31.45,0,*50
1491973394.06,24948,13.06,73266.8,-5.85,-30.39,-31.29,0,*5B
1491973395.34,24949,13.06,73270.3,-5.85,-30.73,-31.61,0,*58
1491973396.62,24950,13.06,73270.5,-5.85,-30.73,-31.61,0,*50
1491973397.9,24951,13.06,73272.0,-5.85,-30.73,-31.73,0,*52
1491973399.17,24952,13.06,73278.5,-5.85,-30.73,-31.57,0,*57
1491973400.4,24953,13.06,73270.3,-5.85,-30.83,-31.79,0,*55
1491973401.69,24954,13.06,73270.0,-5.85,-30.73,-31.61,0,*54
1491973402.94,24955,13.06,73272.8,-5.85,-30.83,-31.61,0,*5A
1491973404.2,24956,13.06,73274.0,-5.85,-30.67,-31.57,0,*56
1491973405.45,24957,13.06,73278.0,-5.85,-30.67,-31.57,0,*57
1491973406.7,24958,13.06,73282.8,-5.85,-30.67,-31.57,0,*58
1491973407.97,24959,13.06,73274.5,-5.85,-30.55,-31.57,0,*58
1491973409.23,24960,13.06,73270.0,-5.85,-30.55,-31.45,0,*51
1491973410.48,24961,13.06,73266.5,-5.85,-30.55,-31.45,0,*50
1491973411.74,24962,13.06,73264.3,-5.85,-30.67,-31.61,0,*54
1491973412.99,24963,13.06,73260.3,-5.85,-30.33,-31.39,0,*59
1491973414.21,24964,13.06,73264.5,-5.83,-30.67,-31.45,0,*52
1491973415.48,24965,13.06,73274.3,-5.85,-30.73,-31.57,0,*53
1491973416.73,24966,13.06,73268.3,-5.85,-30.67,-31.57,0,*55
1491973417.96,24967,13.06,73268.0,-5.83,-30.33,-31.39,0,*5B
1491973419.19,24968,13.06,73270.5,-5.83,-30.33,-31.39,0,*54
1491973420.45,24969,13.06,73266.8,-5.83,-30.51,-31.39,0,*51
1491973421.68,24970,13.06,73264.5,-5.83,-30.39,-31.45,0,*5C
1491973422.91,24971,13.06,73266.3,-5.83,-30.51,-31.45,0,*53
1491973424.14,24972,13.06,73264.3,-5.83,-30.51,-31.45,0,*50
1491973425.37,24973,13.06,73264.8,-5.83,-30.55,-31.45,0,*55
1491973426.63,24974,13.06,73266.8,-5.79,-30.61,-31.57,0,*53
1491973427.88,24975,13.06,73266.5,-5.79,-30.51,-31.51,0,*57
1491973429.14,24976,13.06,73256.8,-5.77,-30.77,-31.67,0,*5B
1491973430.37,24977,13.06,73262.5,-5.79,-30.77,-31.67,0,*54
1491973431.63,24978,13.06,73266.3,-5.79,-30.77,-31.73,0,*5E
1491973432.88,24979,13.06,73264.0,-5.77,-30.67,-31.57,0,*56
1491973434.16,24980,13.06,73266.8,-5.77,-30.77,-31.73,0,*57
1491973435.37,24981,13.06,73266.8,-5.79,-30.67,-31.67,0,*5C
1491973436.58,24982,13.06,73268.3,-5.79,-30.67,-31.67,0,*5F
1491973437.86,24983,13.06,73272.8,-5.77,-30.89,-31.73,0,*55
1491973439.09,24984,13.06,73268.8,-5.79,-30.67,-31.57,0,*5A
1491973440.35,24985,13.06,73268.3,-5.79,-30.51,-31.39,0,*56
1491973441.6,24986,13.06,73266.5,-5.79,-30.51,-31.51,0,*5B
1491973442.88,24987,13.06,73270.8,-5.77,-30.61,-31.51,0,*57
1491973444.16,24988,13.06,73264.3,-5.77,-30.51,-31.51,0,*5B
1491973445.44,24989,13.06,73264.3,-5.77,-30.61,-31.51,0,*59
1491973446.68,24990,13.06,73266.5,-5.77,-30.67,-31.67,0,*52
1491973447.96,24991,13.06,73258.3,-5.77,-30.89,-31.85,0,*5F
1491973449.22,24992,13.06,73262.0,-5.77,-30.83,-31.85,0,*56
1491973450.5,24993,13.06,73258.8,-5.77,-30.77,-31.73,0,*55
1491973451.78,24994,13.06,73262.0,-5.77,-30.77,-31.73,0,*52
1491973453.01,24995,13.06,73262.8,-5.75,-30.83,-31.85,0,*53
1491973454.25,24996,13.06,73264.8,-5.75,-30.83,-31.85,0,*50
1491973455.5,24997,13.06,73266.5,-5.75,-30.61,-31.51,0,*54
1491973456.78,24998,13.06,73272.0,-5.73,-30.55,-31.51,0,*5A
1491973458.04,24999,13.06,73272.8,-5.75,-30.61,-31.51,0,*5A
1491973459.27,25000,13.06,73270.3,-5.73,-30.83,-31.79,0,*52
1491973460.5,25001,13.06,73268.3,-5.75,-30.77,-31.79,0,*5E
1491973461.79,25002,13.06,73276.3,-5.73,-30.77,-31.61,0,*52
1491973463.02,25003,13.06,73272.3,-5.75,-30.77,-31.67,0,*53
1491973464.27,25004,13.06,73278.5,-5.73,-30.77,-31.67,0,*52
1491973465.56,25005,13.06,73276.0,-5.73,-30.73,-31.51,0,*52
1491973466.83,25006,13.06,73274.8,-5.73,-30.55,-31.61,0,*56
1491973468.07,25007,13.06,73272.0,-5.71,-30.67,-31.57,0,*51
1491973469.3,25008,13.06,73276.0,-5.71,-30.67,-31.57,0,*5E
1491973470.54,25009,13.06,73276.5,-5.71,-30.67,-31.61,0,*5A
1491973471.8,25010,13.06,73276.5,-5.71,-30.51,-31.39,0,*5A
1491973473.06,25011,13.06,73280.8,-5.71,-30.51,-31.39,0,*5B
1491973474.32,25012,13.06,73280.8,-5.69,-30.67,-31.73,0,*5A
1491973475.57,25013,13.06,73276.3,-5.71,-30.77,-31.73,0,*53
1491973476.82,25014,13.06,73280.3,-5.71,-30.67,-31.61,0,*56
1491973478.06,25015,13.06,73282.3,-5.71,-30.67,-31.61,0,*57
1491973479.29,25016,13.06,73280.5,-5.71,-30.95,-32.01,0,*5C
1491973480.52,25017,13.06,73282.3,-5.69,-31.17,-32.23,0,*5F
1491973481.79,25018,13.06,73288.5,-5.71,-30.95,-31.91,0,*58
1491973483.02,25019,13.06,73286.3,-5.71,-30.77,-31.79,0,*53
1491973484.28,25020,13.06,73282.5,-5.69,-30.83,-31.95,0,*59
1491973485.54,25021,13.06,73282.3,-5.69,-30.83,-31.73,0,*50
1491973486.82,25022,13.06,73270.8,-5.69,-30.51,-31.57,0,*5A
1491973488.1,25023,13.06,73276.5,-5.69,-30.73,-31.91,0,*51
1491973489.38,25024,13.06,73274.0,-5.69,-30.89,-31.95,0,*57
1491973490.67,25025,13.06,73266.3,-5.69,-30.73,-31.91,0,*57
1491973491.9,25026,13.06,73252.3,-5.71,-30.89,-32.01,0,*52
1491973493.14,25027,13.06,73252.3,-5.71,-31.11,-32.13,0,*50
1491973494.37,25028,13.06,73250.3,-5.71,-30.89,-31.79,0,*50
1491973495.66,25029,13.06,73254.5,-5.69,-30.61,-31.51,0,*54
1491973496.92,25030,13.06,73248.8,-5.71,-30.77,-31.95,0,*5A
1491973498.18,25031,13.06,73258.5,-5.69,-31.01,-32.07,0,*5A
1491973499.44,25032,13.06,73260.0,-5.69,-30.83,-31.85,0,*5B
1491973500.69,25033,13.06,73254.0,-5.69,-30.73,-31.67,0,*59
1491973501.94,25034,13.06,73254.5,-5.69,-30.67,-31.73,0,*5E
1491973503.2,25035,13.06,73278.5,-5.69,-30.61,-31.67,0,*5C
1491973504.45,25036,13.06,73274.8,-5.69,-31.01,-32.07,0,*5D
1491973505.68,25037,13.06,73274.3,-5.69,-31.01,-32.13,0,*59
1491973506.94,25038,13.06,73272.5,-5.69,-31.05,-32.07,0,*57
1491973508.2,25039,13.06,73278.3,-5.69,-30.83,-31.95,0,*51
1491973509.45,25040,13.06,73266.8,-5.69,-30.61,-31.67,0,*5E
1491973510.71,25041,13.06,73266.8,-5.69,-30.67,-31.73,0,*5C
1491973511.94,25042,13.06,73262.8,-5.69,-30.67,-31.67,0,*5A
1491973513.19,25043,13.06,73270.8,-5.69,-30.67,-31.73,0,*5E
1491973514.42,25044,13.06,73272.0,-5.67,-30.51,-31.67,0,*57
1491973515.67,25045,13.06,73276.0,-5.67,-30.73,-31.57,0,*55
1491973516.9,25046,13.06,73278.0,-5.67,-30.73,-31.67,0,*55
1491973518.13,25047,13.06,73276.3,-5.67,-30.83,-31.85,0,*57
1491973519.33,25048,13.06,73274.3,-5.67,-30.67,-31.67,0,*5E
1491973520.59,25049,13.06,73270.5,-5.65,-30.83,-31.91,0,*5E
1491973521.82,25050,13.06,73270.5,-5.67,-30.83,-31.73,0,*58
1491973523.07,25051,13.06,73276.8,-5.65,-30.73,-31.67,0,*51
1491973524.33,25052,13.06,73272.8,-5.65,-30.73,-31.67,0,*52
1491973525.58,25053,13.06,73278.8,-5.65,-30.73,-31.67,0,*53
1491973526.86,25054,13.06,73274.0,-5.65,-30.73,-31.73,0,*51
1491973528.09,25055,13.06,73274.0,-5.65,-30.67,-31.67,0,*50
1491973529.34,25056,13.06,73274.8,-5.65,-30.73,-31.67,0,*56
1491973530.58,25057,13.06,73272.5,-5.63,-30.77,-31.79,0,*5A
1491973531.83,25058,13.06,73272.5,-5.63,-30.55,-31.61,0,*5C
1491973533.06,25059,13.06,73274.3,-5.63,-30.45,-31.51,0,*5F
1491973534.31,25060,13.06,73274.5,-5.63,-30.55,-31.61,0,*57
1491973535.6,25061,13.06,73270.5,-5.61,-30.61,-31.61,0,*53
1491973536.86,25062,13.06,73268.3,-5.61,-30.61,-31.67,0,*56
1491973538.08,25063,13.06,73274.5,-5.63,-30.61,-31.67,0,*55
1491973539.32,25064,13.06,73274.8,-5.61,-30.67,-31.67,0,*56
1491973540.53,25065,13.06,73286.0,-5.63,-30.67,-31.67,0,*55
1491973541.82,25066,13.06,73286.5,-5.61,-31.11,-32.19,0,*5E
1491973543.03,25067,13.06,73286.0,-5.63,-31.29,-32.23,0,*5F
1491973544.26,25068,13.06,73280.8,-5.61,-31.01,-32.01,0,*58
1491973545.55,25069,13.06,73284.8,-5.61,-30.95,-31.85,0,*5A
1491973546.79,25070,13.06,73290.8,-5.61,-30.83,-32.01,0,*5A
1491973548.05,25071,13.06,73290.0,-5.61,-30.95,-32.01,0,*5C
1491973549.31,25072,13.06,73280.0,-5.57,-30.39,-31.45,0,*5F
1491973550.58,25073,13.06,73280.5,-5.57,-30.39,-31.57,0,*5D
1491973551.84,25074,13.06,73276.0,-5.61,-30.55,-31.45,0,*56
1491973553.07,25075,13.06,73274.0,-5.61,-30.67,-31.79,0,*59
1491973554.37,25076,13.06,73268.3,-5.61,-30.95,-32.07,0,*5D
1491973555.66,25077,13.06,73266.5,-5.57,-31.11,-32.19,0,*5B
1491973556.86,25078,13.06,73270.5,-5.55,-31.05,-32.13,0,*59
1491973558.11,25079,13.06,73268.0,-5.57,-31.05,-32.19,0,*50
1491973559.34,25080,13.06,73262.0,-5.57,-31.05,-32.13,0,*5C
1491973560.63,25081,13.06,73264.5,-5.57,-31.23,-32.19,0,*53
1491973561.87,25082,13.06,73264.0,-5.61,-31.17,-32.35,0,*5C
1491973563.17,25083,13.06,73270.5,-5.61,-31.11,-32.19,0,*55
1491973564.43,25084,13.06,73272.5,-5.61,-31.11,-32.23,0,*5B
1491973565.69,25085,13.06,73274.0,-5.61,-30.83,-31.91,0,*5A
1491973566.93,25086,13.06,73270.0,-5.61,-30.83,-32.01,0,*53
1491973568.2,25087,13.06,73268.3,-5.61,-31.11,-32.23,0,*58
1491973569.49,25088,13.06,73270.5,-5.61,-31.11,-32.19,0,*5E
1491973570.76,25089,13.06,73268.0,-5.61,-31.11,-32.23,0,*56
1491973572.05,25090,13.06,73266.3,-5.61,-31.11,-32.19,0,*57
1491973573.29,25091,13.06,73268.3,-5.61,-31.17,-32.23,0,*59
1491973574.53,25092,13.06,73268.5,-5.61,-31.29,-32.39,0,*5C
1491973575.76,25093,13.06,73274.0,-5.61,-31.29,-32.35,0,*51
1491973576.98,25094,13.06,73276.3,-5.63,-31.29,-32.39,0,*58
1491973578.24,25095,13.06,73274.8,-5.61,-31.01,-32.19,0,*53
1491973579.5,25096,13.06,73272.8,-5.61,-30.83,-31.91,0,*58
1491973580.73,25097,13.06,73270.0,-5.63,-30.95,-32.01,0,*56
1491973582.02,25098,13.06,73272.0,-5.57,-30.89,-31.95,0,*5D
1491973583.28,25099,13.06,73264.5,-5.61,-31.17,-32.19,0,*58
1491973584.58,25100,13.06,73278.8,-5.61,-31.11,-32.19,0,*5F
1491973585.87,25101,13.06,73282.5,-5.57,-30.89,-31.95,0,*5C
1491973587.15,25102,13.06,73274.3,-5.61,-30.77,-31.85,0,*5A
1491973588.41,25103,13.06,73274.0,-5.57,-30.73,-31.79,0,*59
1491973589.66,25104,13.06,73274.0,-5.57,-30.73,-31.79,0,*5E
1491973590.92,25105,13.06,73274.8,-5.57,-30.89,-32.01,0,*56
1491973592.13,25106,13.06,73276.3,-5.55,-30.67,-31.79,0,*5B
1491973593.38,25107,13.06,73276.5,-5.57,-30.89,-32.01,0,*54
1491973594.62,25108,13.06,73280.3,-5.55,-30.89,-32.13,0,*5A
1491973595.82,25109,13.06,73278.0,-5.55,-31.17,-32.13,0,*5D
1491973597.02,25110,13.06,73280.8,-5.55,-31.01,-32.13,0,*52
1491973598.28,25111,13.06,73280.0,-5.55,-30.73,-31.95,0,*5A
1491973599.54,25112,13.06,73282.8,-5.55,-30.73,-31.91,0,*5D
1491973600.77,25113,13.13,73288.3,-5.55,-30.67,-31.91,0,*59
1491973602.02,25114,13.06,73282.8,-5.57,-30.89,-32.01,0,*56
1491973603.23,25115,13.06,73280.8,-5.55,-31.05,-32.13,0,*53
1491973604.46,25116,13.06,73276.8,-5.55,-31.01,-32.07,0,*51
1491973605.66,25117,13.06,73274.5,-5.55,-31.05,-32.13,0,*51
1491973606.86,25118,13.06,73280.0,-5.55,-31.01,-32.13,0,*5A
1491973608.09,25119,13.06,73280.8,-5.53,-31.01,-32.13,0,*5D
1491973609.35,25120,13.06,73276.5,-5.53,-30.83,-31.95,0,*51
1491973610.62,25121,13.06,73278.5,-5.53,-30.83,-31.95,0,*50
1491973611.88,25122,13.06,73282.8,-5.53,-31.01,-32.07,0,*50
1491973613.14,25123,13.06,73280.5,-5.53,-30.89,-32.13,0,*55
1491973614.37,25124,13.06,73282.0,-5.53,-31.05,-32.23,0,*54
1491973615.6,25125,13.06,73282.0,-5.53,-31.05,-32.23,0,*55
1491973616.86,25126,13.06,73276.3,-5.53,-31.17,-32.29,0,*5F
1491973618.09,25127,13.06,73278.3,-5.53,-31.01,-32.23,0,*53
1491973619.33,25128,13.06,73276.8,-5.51,-30.67,-31.85,0,*50
1491973620.56,25129,13.06,73272.3,-5.53,-31.05,-32.23,0,*59
1491973621.79,25130,13.06,73276.3,-5.53,-31.05,-32.13,0,*52
1491973623.08,25131,13.06,73282.3,-5.53,-30.73,-31.95,0,*5E
1491973624.31,25132,13.06,73282.0,-5.51,-30.73,-31.79,0,*5D
1491973625.54,25133,13.06,73286.3,-5.51,-31.01,-32.07,0,*52
1491973626.83,25134,13.06,73284.0,-5.53,-31.39,-32.45,0,*5A
1491973628.09,25135,13.06,73278.3,-5.51,-31.11,-32.19,0,*5A
1491973629.33,25136,13.13,73280.3,-5.51,-31.11,-32.23,0,*50
1491973630.56,25137,13.06,73278.5,-5.51,-30.95,-32.01,0,*5C
1491973631.82,25138,13.06,73280.5,-5.51,-30.61,-31.91,0,*52
1491973633.08,25139,13.06,73278.0,-5.53,-31.01,-32.07,0,*5A
1491973634.34,25140,13.06,73282.3,-5.51,-30.77,-31.91,0,*5A
1491973635.63,25141,13.06,73286.3,-5.53,-30.89,-32.07,0,*54
1491973636.88,25142,13.13,73286.5,-5.51,-30.77,-31.73,0,*54
1491973638.12,25143,13.06,73282.3,-5.51,-30.67,-31.73,0,*54
1491973639.35,25144,13.06,73286.8,-5.51,-30.67,-31.85,0,*5A
1491973640.63,25145,13.06,73288.3,-5.49,-30.61,-31.85,0,*54
1491973641.92,25146,13.06,73290.5,-5.45,-30.73,-31.95,0,*59
1491973643.15,25147,13.06,73292.0,-5.49,-31.01,-32.23,0,*5E
1491973644.41,25148,13.06,73288.5,-5.49,-31.11,-32.23,0,*50
1491973645.67,25149,13.06,73284.8,-5.49,-30.83,-32.07,0,*5D
1491973646.94,25150,13.06,73276.8,-5.45,-31.11,-32.39,0,*5E
1491973648.17,25151,13.06,73278.3,-5.49,-31.67,-32.91,0,*50
1491973649.47,25152,13.06,73282.5,-5.49,-31.61,-32.75,0,*5F
1491973650.76,25153,13.06,73280.8,-5.53,-31.23,-32.45,0,*50
1491973651.97,25154,13.06,73282.3,-5.51,-31.17,-32.39,0,*59
1491973653.2,25155,13.06,73282.8,-5.51,-31.01,-32.19,0,*5D
1491973654.43,25156,13.06,73282.5,-5.51,-31.01,-32.19,0,*5E
1491973655.64,25157,13.13,73282.8,-5.51,-31.17,-32.23,0,*51
1491973656.9,25158,13.06,73268.0,-5.49,-30.83,-32.07,0,*5D
1491973658.19,25159,13.06,73268.8,-5.49,-30.95,-32.19,0,*54
1491973659.46,25160,13.13,73270.5,-5.51,-30.95,-32.19,0,*57
1491973660.69,25161,13.06,73268.0,-5.49,-31.17,-32.23,0,*5D
1491973661.95,25162,13.06,73260.0,-5.49,-31.11,-32.23,0,*58
1491973663.21,25163,13.06,73264.3,-5.49,-31.01,-32.19,0,*51
1491973664.46,25164,13.06,73268.5,-5.49,-31.01,-32.07,0,*59
1491973665.75,25165,13.13,73268.8,-5.45,-30.89,-31.95,0,*5D
1491973667.01,25166,13.06,73266.3,-5.49,-30.77,-32.01,0,*5D
1491973668.24,25167,13.06,73274.5,-5.49,-30.83,-32.01,0,*57
1491973669.5,25168,13.06,73282.8,-5.45,-30.77,-32.01,0,*5F
1491973670.73,25169,13.06,73276.8,-5.45,-31.05,-32.13,0,*59
1491973671.99,25170,13.13,73276.0,-5.45,-30.89,-32.01,0,*57
1491973673.23,25171,13.06,73268.0,-5.49,-30.83,-32.01,0,*50
1491973674.51,25172,13.06,73266.5,-5.49,-30.95,-32.07,0,*52
1491973675.81,25173,13.13,73266.0,-5.45,-31.11,-32.19,0,*5D
1491973677.04,25174,13.06,73268.3,-5.45,-31.29,-32.35,0,*5F
1491973678.33,25175,13.06,73272.0,-5.45,-31.39,-32.45,0,*58
1491973679.59,25176,13.13,73276.8,-5.45,-31.39,-32.35,0,*5C
1491973680.85,25177,13.13,73278.5,-5.49,-31.51,-32.51,0,*5D
1491973682.14,25178,13.06,73280.3,-5.45,-31.61,-32.63,0,*5C
1491973683.43,25179,13.13,73280.0,-5.45,-31.23,-32.19,0,*56
1491973684.69,25180,13.06,73282.8,-5.45,-30.89,-32.01,0,*58
1491973685.98,25181,13.13,73286.5,-5.45,-30.77,-31.85,0,*57
1491973687.21,25182,13.06,73286.8,-5.45,-31.05,-32.13,0,*5C
1491973688.44,25183,13.13,73286.3,-5.45,-31.05,-32.13,0,*5D
1491973689.73,25184,13.06,73282.3,-5.45,-31.23,-32.29,0,*57
1491973691.02,25185,13.06,73280.8,-5.45,-30.77,-31.95,0,*52
1491973692.28,25186,13.06,73282.3,-5.45,-30.95,-32.13,0,*50
1491973693.56,25187,13.06,73280.5,-5.45,-30.73,-31.61,0,*5F
1491973694.79,25188,13.06,73280.0,-5.43,-30.33,-31.57,0,*57
1491973696.04,25189,13.13,73282.0,-5.43,-30.55,-31.61,0,*53
1491973697.29,25190,13.06,73276.8,-5.43,-30.55,-31.57,0,*5E
1491973698.54,25191,13.13,73284.0,-5.43,-30.55,-31.61,0,*5A
1491973699.78,25192,13.13,73280.3,-5.43,-30.73,-31.79,0,*54